Weather History for KCMA - September, 2013

Change the Weather History Date:

Monday, September 2, 2013

  Actual Average Record
Temperature  
Mean Temperature 74 °F 68 °F  
Max Temperature 82 °F 77 °F 98 °F (1955)
Min Temperature 65 °F 59 °F 46 °F (1964)
Degree Days  
Heating Degree Days 0 0  
Month to date heating degree days 0 0  
Since 1 July heating degree days 3 15  
Cooling Degree Days 9 3  
Month to date cooling degree days 20 6  
Year to date cooling degree days 489 218  
Growing Degree Days 24 (Base 50)    
Moisture  
Dew Point 64 °F    
Average Humidity 71    
Maximum Humidity 87    
Minimum Humidity 55    
Precipitation  
Precipitation 0.00 in 0.00 in 0.02 in (1998)
Month to date precipitation 0.00 0.00  
Year to date precipitation 2.19 11.04  
Since 1 July precipitation 0.04 0.06  
Sea Level Pressure  
Sea Level Pressure 29.89 in    
Wind  
Wind Speed 4 mph (West)    
Max Wind Speed 21 mph    
Max Gust Speed -    
Visibility 10 miles    
Events      
T = Trace of Precipitation, MM = Missing Value Source: NWS Daily Summary

Daily Weather History Graph

Daily Weather History Graph

Search for Another Location

Airport or City:

Trip Planner

Search our weather history database for the weather conditions in past years. The results will help you decide how hot, cold, wet, or windy it might be!

Date:

Astronomy

Sep. 02, 2013 Rise Set
Actual Time 6:30 AM PDT 7:20 PM PDT
Civil Twilight 6:05 AM PDT 7:46 PM PDT
Nautical Twilight 5:34 AM PDT 8:16 PM PDT
Astronomical Twilight 5:03 AM PDT 8:47 PM PDT
Moon 3:56 AM PDT (9/2) 5:33 PM PDT (9/2)
Length of Visible Light 13h 40m
Length of Day
12h 49m
Waning Crescent, 7% of the Moon is Illuminated
Sep 2
Waning Crescent
Sep 5
New
Sep 12
First Quarter
Sep 19
Full
Sep 26
Last Quarter

Hourly Weather History & Observations

Time (PDT) Temp. Heat Index Dew Point Humidity Pressure Visibility Wind Dir Wind Speed Gust Speed Precip Events Conditions
12:55 AM 69.1 °F - 64.0 °F 84% 29.90 in 10.0 mi WNW 3.5 mph - N/A   Clear
1:55 AM 68.0 °F - 64.0 °F 87% 29.90 in 10.0 mi Calm Calm - N/A   Clear
2:55 AM 66.9 °F - 62.1 °F 84% 29.91 in 10.0 mi Calm Calm - N/A   Clear
3:55 AM 66.9 °F - 62.1 °F 84% 29.90 in 10.0 mi Calm Calm - N/A   Clear
4:55 AM 66.9 °F - 62.1 °F 84% 29.90 in 10.0 mi North - - N/A   Clear
5:55 AM 66.0 °F - 62.1 °F 87% 29.90 in 10.0 mi Calm Calm - N/A   Clear
6:55 AM 66.0 °F - 62.1 °F 87% 29.92 in 10.0 mi Calm Calm - N/A   Clear
7:55 AM 69.1 °F - 64.0 °F 84% 29.94 in 10.0 mi Calm Calm - N/A   Clear
8:55 AM 72.0 °F - 64.0 °F 76% 29.94 in 10.0 mi Calm Calm - N/A   Clear
9:55 AM 75.9 °F - 64.9 °F 69% 29.94 in 10.0 mi Variable 3.5 mph - N/A   Clear
10:55 AM 80.1 °F 81.9 °F 64.9 °F 60% 29.94 in 10.0 mi West 6.9 mph - N/A   Clear
11:55 AM 80.1 °F 81.9 °F 64.9 °F 60% 29.93 in 10.0 mi SW 8.1 mph - N/A   Clear
12:55 PM 82.0 °F 83.8 °F 64.9 °F 56% 29.91 in 10.0 mi WSW 9.2 mph - N/A   Clear
1:55 PM 82.0 °F 83.8 °F 64.9 °F 56% 29.90 in 10.0 mi West 10.4 mph - N/A   Clear
2:55 PM 81.0 °F 82.7 °F 64.9 °F 58% 29.87 in 10.0 mi West 10.4 mph - N/A   Clear
3:55 PM 77.0 °F - 64.0 °F 64% 29.86 in 10.0 mi West 11.5 mph - N/A   Clear
4:55 PM 73.9 °F - 64.0 °F 71% 29.86 in 10.0 mi WSW 6.9 mph - N/A   Clear
5:55 PM 72.0 °F - 64.0 °F 76% 29.86 in 10.0 mi WSW 6.9 mph - N/A   Clear
6:55 PM 72.0 °F - 64.0 °F 76% 29.83 in 10.0 mi Calm Calm - N/A   Clear
7:55 PM 71.1 °F - 64.0 °F 78% 29.85 in 10.0 mi WSW 5.8 mph - N/A   Clear
8:55 PM 69.1 °F - 63.0 °F 81% 29.88 in 10.0 mi WNW 3.5 mph - N/A   Clear
9:55 PM 70.0 °F - 64.0 °F 81% 29.88 in 10.0 mi Calm Calm - N/A   Clear
10:55 PM 69.1 °F - 63.0 °F 81% 29.88 in 10.0 mi WNW 4.6 mph - N/A   Clear
11:55 PM 69.1 °F - 63.0 °F 81% 29.87 in 10.0 mi Calm Calm - N/A   Clear